TimeEST,TemperatureF,Dew PointF,Humidity,Sea Level PressureIn,VisibilityMPH,Wind Direction,Wind SpeedMPH,Gust SpeedMPH,PrecipitationIn,Events,Conditions,WindDirDegrees,DateUTC
12:15 AM,35.6,17.6,48,30.22,10.0,SSE,4.6,-,N/A,,Clear,150,2013-02-18 05:15:00
12:35 AM,33.8,17.6,52,30.22,10.0,SSE,5.8,-,N/A,,Clear,150,2013-02-18 05:35:00
12:55 AM,33.8,17.6,52,30.22,10.0,SE,5.8,-,N/A,,Clear,140,2013-02-18 05:55:00
1:35 AM,33.8,17.6,52,30.22,10.0,SSE,3.5,-,N/A,,Clear,150,2013-02-18 06:35:00
1:55 AM,33.8,19.4,56,30.21,10.0,SE,5.8,-,N/A,,Clear,130,2013-02-18 06:55:00
2:15 AM,33.8,17.6,52,30.21,10.0,SE,5.8,-,N/A,,Clear,140,2013-02-18 07:15:00
2:35 AM,33.8,19.4,56,30.21,10.0,SSE,5.8,-,N/A,,Clear,150,2013-02-18 07:35:00
2:55 AM,33.8,19.4,56,30.21,10.0,SSE,4.6,-,N/A,,Clear,150,2013-02-18 07:55:00
3:15 AM,35.6,17.6,48,30.20,10.0,SSE,6.9,-,N/A,,Clear,160,2013-02-18 08:15:00
3:35 AM,37.4,17.6,45,30.20,10.0,SE,6.9,-,N/A,,Clear,140,2013-02-18 08:35:00
3:55 AM,37.4,17.6,45,30.20,10.0,SSE,6.9,-,N/A,,Clear,150,2013-02-18 08:55:00
4:15 AM,37.4,19.4,48,30.20,10.0,SE,8.1,-,N/A,,Clear,140,2013-02-18 09:15:00
4:35 AM,35.6,17.6,48,30.20,10.0,SSE,8.1,-,N/A,,Clear,150,2013-02-18 09:35:00
4:55 AM,35.6,17.6,48,30.21,10.0,SSE,5.8,-,N/A,,Clear,150,2013-02-18 09:55:00
5:15 AM,35.6,19.4,52,30.22,10.0,SE,9.2,-,N/A,,Clear,140,2013-02-18 10:15:00
5:35 AM,35.6,17.6,48,30.22,10.0,SE,6.9,-,N/A,,Clear,140,2013-02-18 10:35:00
5:55 AM,35.6,17.6,48,30.22,10.0,SSE,9.2,-,N/A,,Clear,150,2013-02-18 10:55:00
6:15 AM,37.4,19.4,48,30.22,10.0,SE,6.9,-,N/A,,Clear,140,2013-02-18 11:15:00
6:35 AM,35.6,19.4,52,30.22,10.0,SE,8.1,-,N/A,,Clear,140,2013-02-18 11:35:00
6:55 AM,33.8,19.4,56,30.23,10.0,SSE,5.8,-,N/A,,Clear,160,2013-02-18 11:55:00
7:15 AM,37.4,19.4,48,30.23,10.0,SSE,8.1,-,N/A,,Clear,150,2013-02-18 12:15:00
7:35 AM,35.6,19.4,52,30.23,10.0,SSE,6.9,-,N/A,,Clear,150,2013-02-18 12:35:00
7:55 AM,37.4,21.2,52,30.24,10.0,SSE,8.1,-,N/A,,Clear,160,2013-02-18 12:55:00
8:15 AM,39.2,21.2,49,30.24,10.0,SE,8.1,-,N/A,,Clear,140,2013-02-18 13:15:00
8:35 AM,39.2,21.2,49,30.25,10.0,SE,10.4,-,N/A,,Clear,140,2013-02-18 13:35:00
8:55 AM,39.2,21.2,49,30.25,10.0,SSE,10.4,-,N/A,,Clear,150,2013-02-18 13:55:00
9:15 AM,41.0,23.0,49,30.25,10.0,SE,10.4,-,N/A,,Clear,130,2013-02-18 14:15:00
9:35 AM,42.8,24.8,49,30.25,10.0,SSE,9.2,-,N/A,,Clear,160,2013-02-18 14:35:00
9:55 AM,46.4,24.8,43,30.25,10.0,SSE,6.9,-,N/A,,Clear,160,2013-02-18 14:55:00
10:15 AM,48.2,26.6,43,30.25,10.0,South,11.5,-,N/A,,Clear,170,2013-02-18 15:15:00
10:35 AM,48.2,26.6,43,30.25,10.0,South,9.2,-,N/A,,Clear,190,2013-02-18 15:35:00
10:55 AM,51.8,26.6,38,30.24,10.0,SSW,10.4,-,N/A,,Clear,210,2013-02-18 15:55:00
11:15 AM,51.8,28.4,41,30.24,10.0,SSW,10.4,-,N/A,,Clear,210,2013-02-18 16:15:00
11:35 AM,51.8,28.4,41,30.23,10.0,South,8.1,-,N/A,,Clear,190,2013-02-18 16:35:00
11:55 AM,53.6,30.2,41,30.22,10.0,South,10.4,-,N/A,,Clear,180,2013-02-18 16:55:00
12:15 PM,55.4,30.2,38,30.21,10.0,SW,15.0,-,N/A,,Clear,220,2013-02-18 17:15:00
12:35 PM,57.2,30.2,36,30.19,10.0,South,12.7,-,N/A,,Clear,190,2013-02-18 17:35:00
12:55 PM,57.2,28.4,33,30.17,10.0,South,15.0,-,N/A,,Clear,170,2013-02-18 17:55:00
1:15 PM,57.2,28.4,33,30.16,10.0,SSW,13.8,-,N/A,,Clear,200,2013-02-18 18:15:00
1:35 PM,57.2,28.4,33,30.15,10.0,South,11.5,-,N/A,,Clear,180,2013-02-18 18:35:00
1:55 PM,57.2,28.4,33,30.14,10.0,SSW,13.8,-,N/A,,Clear,200,2013-02-18 18:55:00
2:15 PM,59.0,28.4,31,30.13,10.0,South,13.8,-,N/A,,Clear,190,2013-02-18 19:15:00
2:35 PM,59.0,30.2,34,30.11,10.0,South,12.7,-,N/A,,Clear,180,2013-02-18 19:35:00
2:55 PM,59.0,30.2,34,30.10,10.0,South,15.0,-,N/A,,Clear,170,2013-02-18 19:55:00
3:15 PM,60.8,30.2,31,30.09,10.0,South,17.3,-,N/A,,Clear,170,2013-02-18 20:15:00
3:35 PM,59.0,30.2,34,30.08,10.0,South,15.0,-,N/A,,Clear,190,2013-02-18 20:35:00
3:55 PM,59.0,30.2,34,30.08,10.0,South,16.1,-,N/A,,Clear,180,2013-02-18 20:55:00
4:15 PM,57.2,32.0,38,30.07,10.0,South,17.3,-,N/A,,Clear,170,2013-02-18 21:15:00
4:35 PM,55.4,30.2,38,30.06,10.0,South,18.4,-,N/A,,Clear,170,2013-02-18 21:35:00
4:55 PM,55.4,30.2,38,30.05,10.0,South,15.0,-,N/A,,Partly Cloudy,180,2013-02-18 21:55:00
5:15 PM,57.2,28.4,33,30.04,10.0,South,17.3,-,N/A,,Scattered Clouds,180,2013-02-18 22:15:00
5:35 PM,55.4,30.2,38,30.03,10.0,SSE,17.3,26.5,N/A,,Mostly Cloudy,160,2013-02-18 22:35:00
5:55 PM,55.4,30.2,38,30.01,10.0,SSE,20.7,-,N/A,,Overcast,160,2013-02-18 22:55:00
6:35 PM,55.4,28.4,36,30.01,10.0,South,17.3,24.2,N/A,,Overcast,170,2013-02-18 23:35:00
6:55 PM,55.4,28.4,36,30.01,10.0,SSE,17.3,-,N/A,,Overcast,160,2013-02-18 23:55:00
7:15 PM,55.4,30.2,38,30.01,10.0,SSE,11.5,-,N/A,,Overcast,160,2013-02-19 00:15:00
7:35 PM,55.4,28.4,36,30.00,10.0,SSE,16.1,-,N/A,,Overcast,160,2013-02-19 00:35:00
7:55 PM,53.6,26.6,35,29.98,10.0,South,19.6,-,N/A,,Mostly Cloudy,170,2013-02-19 00:55:00
8:15 PM,53.6,26.6,35,29.97,10.0,SSE,25.3,-,N/A,,Scattered Clouds,160,2013-02-19 01:15:00
8:35 PM,53.6,26.6,35,29.99,10.0,SSE,19.6,39.1,N/A,,Overcast,160,2013-02-19 01:35:00
8:55 PM,53.6,28.4,38,29.97,10.0,SSE,20.7,31.1,N/A,,Overcast,160,2013-02-19 01:55:00
9:15 PM,53.6,28.4,38,29.96,10.0,SSE,24.2,-,N/A,,Overcast,160,2013-02-19 02:15:00
9:35 PM,53.6,28.4,38,29.96,10.0,SSE,25.3,38.0,N/A,,Overcast,160,2013-02-19 02:35:00
9:55 PM,51.8,28.4,41,29.94,10.0,SSE,25.3,40.3,N/A,,Mostly Cloudy,160,2013-02-19 02:55:00
10:15 PM,51.8,28.4,41,29.96,10.0,South,20.7,38.0,N/A,,Mostly Cloudy,170,2013-02-19 03:15:00
10:35 PM,51.8,28.4,41,29.95,10.0,SSE,26.5,33.4,N/A,,Overcast,160,2013-02-19 03:35:00
10:55 PM,51.8,28.4,41,29.94,10.0,SSE,20.7,36.8,N/A,,Overcast,160,2013-02-19 03:55:00
11:15 PM,51.8,30.2,44,29.92,10.0,South,20.7,-,N/A,,Overcast,170,2013-02-19 04:15:00
11:35 PM,50.0,33.8,54,29.92,10.0,South,31.1,41.4,N/A,,Overcast,170,2013-02-19 04:35:00
11:55 PM,46.4,37.4,71,29.91,6.0,SSE,21.9,-,N/A,,Overcast,160,2013-02-19 04:55:00